Gwinner, ND

5:34 PM CST on February 27, 2017 (GMT -0600)
Gwinner-melroe

Weather History for KGWR - January, 2013

Change the Weather History Date:

Friday, January 11, 2013

  Actual Average (KP67) Record (KP67)
Temperature  
Mean Temperature 24 °F -  
Max Temperature 35 °F 13 °F 0 °F (1998)
Min Temperature 12 °F -1 °F -15 °F (1997)
Degree Days  
Heating Degree Days 42    
Moisture  
Dew Point 26 °F    
Average Humidity 99    
Maximum Humidity 100    
Minimum Humidity 92    
Precipitation  
Precipitation 0.00 in - - ()
Sea Level Pressure  
Sea Level Pressure 29.47 in    
Wind  
Wind Speed 3 mph (SE)    
Max Wind Speed 9 mph    
Max Gust Speed -    
Visibility 2 miles    
Events      
Averages and records for this station are not official NWS values.
T = Trace of Precipitation, MM = Missing Value Source: NWS Daily Summary

Daily Weather History Graph

Daily Weather History Graph

Search for Another Location

Airport or City:

Trip Planner

Search our weather history database for the weather conditions in past years. The results will help you decide how hot, cold, wet, or windy it might be!

Date:

Astronomy

Jan. 11, 2013 Rise Set
Actual Time 8:11 AM CST 5:06 PM CST
Civil Twilight 7:37 AM CST 5:40 PM CST
Nautical Twilight 6:59 AM CST 6:17 PM CST
Astronomical Twilight 6:23 AM CST 6:54 PM CST
Moon 7:42 AM CST (1/11) 5:29 PM CST (1/11)
Length of Visible Light 10h 03m
Length of Day
8h 55m
Waning Crescent, 0% of the Moon is Illuminated
Jan 11
Waning Crescent
Jan 11
New
Jan 18
First Quarter
Jan 26
Full
Feb 3
Last Quarter

Hourly Weather History & Observations

Time (CST) Temp. Windchill Dew Point Humidity Pressure Visibility Wind Dir Wind Speed Gust Speed Precip Events Conditions
12:15 AM 33.8 °F 26.4 °F 33.8 °F 100% 29.50 in 7.0 mi SE 9.2 mph - 0.00 in   Overcast
12:35 AM 33.8 °F 27.7 °F 33.8 °F 100% 29.51 in 8.0 mi SSE 6.9 mph - 0.00 in   Overcast
12:55 AM 33.8 °F 28.6 °F 33.8 °F 100% 29.51 in 8.0 mi SSE 5.8 mph - 0.00 in   Overcast
1:15 AM 33.8 °F 30.8 °F 33.8 °F 100% 29.50 in 7.0 mi SSE 3.5 mph - 0.00 in   Overcast
1:35 AM 33.8 °F 29.6 °F 33.8 °F 100% 29.49 in 6.0 mi SE 4.6 mph - 0.00 in   Overcast
1:55 AM 33.8 °F - 33.8 °F 100% 29.50 in 6.0 mi Calm Calm - 0.00 in   Overcast
2:15 AM 33.8 °F - 33.8 °F 100% 29.50 in 6.0 mi Calm Calm - 0.00 in   Overcast
2:35 AM 33.8 °F 29.6 °F 33.8 °F 100% 29.49 in 5.0 mi SE 4.6 mph - 0.00 in   Overcast
2:55 AM 33.8 °F - 33.8 °F 100% 29.50 in 5.0 mi Calm Calm - 0.00 in   Overcast
3:15 AM 35.6 °F 29.9 °F 35.6 °F 100% 29.48 in 4.0 mi South 6.9 mph - 0.00 in   Overcast
3:35 AM 35.6 °F 29.2 °F 35.6 °F 100% 29.48 in 2.5 mi South 8.1 mph - 0.00 in   Overcast
3:55 AM 35.6 °F - 35.6 °F 100% 29.46 in 1.0 mi Calm Calm - 0.00 in   Overcast
4:15 AM 35.6 °F 30.7 °F 35.6 °F 100% 29.46 in 0.5 mi South 5.8 mph - 0.00 in   Overcast
4:35 AM 35.6 °F - 35.6 °F 100% 29.46 in 0.2 mi Calm Calm - 0.00 in   Overcast
4:55 AM 33.8 °F - 33.8 °F 100% 29.46 in 0.2 mi Calm Calm - 0.00 in   Overcast
5:15 AM 33.8 °F - 33.8 °F 100% 29.45 in 0.2 mi Calm Calm - 0.00 in   Overcast
5:35 AM 33.8 °F - 33.8 °F 100% 29.44 in 0.2 mi Calm Calm - 0.00 in   Overcast
5:55 AM 33.8 °F - 33.8 °F 100% 29.44 in 0.2 mi Calm Calm - 0.00 in   Overcast
6:15 AM 33.8 °F - 33.8 °F 100% 29.44 in 0.2 mi Calm Calm - 0.00 in   Overcast
6:55 AM 33.8 °F - 33.8 °F 100% 29.44 in 0.2 mi Calm Calm - 0.00 in   Overcast
7:15 AM 33.8 °F - 33.8 °F 100% 29.44 in 0.2 mi Calm Calm - 0.00 in   Overcast
7:35 AM 33.8 °F - 33.8 °F 100% 29.45 in 0.2 mi Calm Calm - 0.00 in   Overcast
7:55 AM 33.8 °F - 33.8 °F 100% 29.46 in 0.2 mi Calm Calm - 0.00 in   Overcast
8:15 AM 33.8 °F - 33.8 °F 100% 29.46 in 0.2 mi Calm Calm - 0.00 in   Overcast
8:35 AM 33.8 °F - 33.8 °F 100% 29.45 in 0.2 mi Calm Calm - 0.00 in   Overcast
8:55 AM 33.8 °F 28.6 °F 33.8 °F 100% 29.44 in 0.2 mi NNE 5.8 mph - 0.00 in   Overcast
9:15 AM 33.8 °F 26.4 °F 33.8 °F 100% 29.42 in 0.2 mi NNE 9.2 mph - 0.00 in   Overcast
9:35 AM 33.8 °F 29.6 °F 33.8 °F 100% 29.44 in 0.2 mi NE 4.6 mph - 0.00 in   Overcast
9:55 AM 33.8 °F - 33.8 °F 100% 29.46 in 0.2 mi Calm Calm - 0.00 in   Overcast
10:15 AM 33.8 °F 28.6 °F 33.8 °F 100% 29.46 in 0.2 mi North 5.8 mph - 0.00 in   Overcast
10:35 AM 32.0 °F - 32.0 °F 100% 29.47 in 0.2 mi Calm Calm - 0.00 in   Overcast
10:55 AM 32.0 °F - 32.0 °F 100% 29.46 in 0.8 mi Calm Calm - 0.00 in   Overcast
11:15 AM 32.0 °F - 32.0 °F 100% 29.47 in 1.0 mi Calm Calm - 0.00 in   Overcast
11:35 AM 30.2 °F - 30.2 °F 100% 29.46 in 1.2 mi Calm Calm - 0.00 in   Overcast
11:55 AM 30.2 °F - 30.2 °F 100% 29.46 in 1.5 mi Calm Calm - 0.00 in   Overcast
12:15 PM 28.4 °F - 28.4 °F 100% 29.44 in 2.0 mi Calm Calm - 0.00 in   Overcast
12:35 PM 28.4 °F - 28.4 °F 100% 29.45 in 1.8 mi Calm Calm - 0.00 in   Overcast
12:55 PM 28.4 °F - 28.4 °F 100% 29.44 in 1.8 mi Calm Calm - 0.00 in   Overcast
1:15 PM 28.4 °F - 28.4 °F 100% 29.45 in 2.0 mi Calm Calm - 0.00 in   Overcast
1:35 PM 26.6 °F - 26.6 °F 100% 29.45 in 2.5 mi Calm Calm - 0.00 in   Overcast
1:55 PM 26.6 °F - 26.6 °F 100% 29.45 in 1.5 mi Calm Calm - 0.00 in   Overcast
2:15 PM 26.6 °F - 26.6 °F 100% 29.45 in 1.2 mi Calm Calm - 0.00 in   Overcast
2:35 PM 24.8 °F - 24.8 °F 100% 29.43 in 1.5 mi Calm Calm - 0.00 in   Overcast
2:55 PM 24.8 °F - 24.8 °F 100% 29.41 in 2.0 mi Calm Calm - 0.00 in   Overcast
3:15 PM 23.0 °F - 23.0 °F 100% 29.44 in 1.8 mi Calm Calm - 0.00 in   Overcast
3:35 PM 23.0 °F - 23.0 °F 100% 29.46 in 2.5 mi Calm Calm - 0.00 in   Overcast
3:55 PM - - - N/A% 29.47 in 1.8 mi Calm Calm - 0.00 in   Overcast
4:15 PM 21.2 °F - 21.2 °F 100% 29.47 in 1.0 mi Calm Calm - 0.00 in   Overcast
4:35 PM 21.2 °F - 21.2 °F 100% 29.46 in 1.0 mi Calm Calm - 0.00 in   Overcast
4:55 PM 21.2 °F - 21.2 °F 100% 29.45 in 1.0 mi Calm Calm - 0.00 in   Overcast
5:15 PM - - - N/A% 29.46 in 1.2 mi Calm Calm - 0.00 in   Overcast
5:35 PM 19.4 °F - 19.4 °F 100% 29.47 in 2.5 mi Calm Calm - 0.00 in   Overcast
5:55 PM 19.4 °F - 19.4 °F 100% 29.48 in 1.2 mi Calm Calm - 0.00 in   Overcast
6:15 PM 19.4 °F - 19.4 °F 100% 29.49 in 1.5 mi Calm Calm - 0.00 in   Overcast
6:35 PM 17.6 °F - 17.6 °F 100% 29.48 in 1.8 mi Calm Calm - 0.00 in   Overcast
6:55 PM 17.6 °F - 17.6 °F 100% 29.49 in 2.5 mi Calm Calm - 0.00 in   Overcast
7:15 PM 17.6 °F - 17.6 °F 100% 29.49 in 3.0 mi Calm Calm - 0.00 in   Overcast
7:35 PM 17.6 °F - 15.8 °F 93% 29.50 in 2.0 mi Calm Calm - 0.00 in   Overcast
7:55 PM 15.8 °F - 15.8 °F 100% 29.50 in 2.5 mi Calm Calm - 0.00 in   Overcast
8:15 PM 15.8 °F - 15.8 °F 100% 29.50 in 1.8 mi Calm Calm - 0.00 in   Overcast
8:35 PM 15.8 °F - 14.0 °F 93% 29.51 in 3.0 mi Calm Calm - 0.00 in   Overcast
8:55 PM 14.0 °F - 14.0 °F 100% 29.51 in 2.0 mi Calm Calm - 0.00 in   Overcast
9:15 PM 14.0 °F - 14.0 °F 100% 29.51 in 0.8 mi Calm Calm - 0.00 in   Overcast
9:35 PM 14.0 °F - 12.2 °F 93% 29.52 in 1.0 mi Calm Calm - 0.00 in   Overcast
9:55 PM 14.0 °F - 12.2 °F 93% 29.53 in 1.5 mi Calm Calm - 0.00 in   Overcast
10:15 PM 14.0 °F - 12.2 °F 93% 29.53 in 2.5 mi Calm Calm - 0.00 in   Overcast
10:35 PM 14.0 °F - 12.2 °F 93% 29.52 in 2.0 mi Calm Calm - 0.00 in   Overcast
10:55 PM 14.0 °F - 12.2 °F 93% 29.52 in 3.0 mi Calm Calm - 0.00 in   Overcast
11:15 PM 14.0 °F - 12.2 °F 93% 29.52 in 3.0 mi Calm Calm - 0.00 in   Overcast
11:35 PM 12.2 °F - 10.4 °F 92% 29.53 in 3.0 mi Calm Calm - 0.00 in   Overcast
11:55 PM 12.2 °F - 10.4 °F 92% 29.54 in 4.0 mi Calm Calm - 0.00 in   Overcast